GW7183 Weather Reports


time (UTC)temp
F
wind
direction
speed
knots
gust
knots
rain 1hr
in
rain 24hr
in
rain mn
in
humidity
%
barometer
mb
20260504010047 53 0 0.0 4.3 0.00 0.00 0.00 45 1011.3
20260504010010 53 210 3.5 6.1 0.00 0.00 0.00 44 1011.6
20260504010007 53 211 3.5 6.1 0.00 0.00 0.00 44 1011.6
20260504004546 54 0 0.0 7.0 0.00 0.00 0.00 43 1011.2
20260504004515 54 215 2.6 8.7 0.00 0.00 0.00 43 1011.6
20260504004506 54 216 2.6 7.8 0.00 0.00 0.00 43 1011.5
20260504003051 55 234 2.6 9.6 0.00 0.00 0.00 42 1011.1
20260504003016 55 210 3.5 13.0 0.00 0.00 0.00 41 1011.5
20260504003006 55 211 3.5 12.2 0.00 0.00 0.00 41 1011.4
20260504001546 55 0 0.0 7.8 0.00 0.00 0.00 42 1011.1
20260504001525 55 202 2.6 8.7 0.00 0.00 0.00 41 1011.5
20260504001508 55 203 2.6 7.8 0.00 0.00 0.00 41 1011.5
20260504000050 55 277 3.5 7.0 0.00 0.00 0.00 42 1011.2
20260504000025 55 227 3.5 7.8 0.00 0.00 0.00 41 1011.6
20260504000004 55 204 3.5 7.8 0.00 0.00 0.00 41 1011.6
20260503234549 56 345 0.9 6.1 0.00 0.00 0.00 43 1011.2
20260503234510 56 269 5.2 9.6 0.00 0.00 0.00 42 1011.6
20260503234506 56 272 5.2 9.6 0.00 0.00 0.00 42 1011.5
20260503233047 56 262 2.6 10.4 0.00 0.00 0.00 42 1011.4
20260503233019 56 232 2.6 11.3 0.00 0.00 0.00 40 1011.6
20260503233008 56 234 2.6 10.4 0.00 0.00 0.00 40 1011.6
20260503231546 56 309 3.5 11.3 0.00 0.00 0.00 41 1011.5
20260503231525 56 168 4.3 15.6 0.00 0.00 0.00 40 1011.7
20260503231505 56 167 3.5 13.0 0.00 0.00 0.00 40 1011.6
20260503230045 56 261 4.3 9.6 0.00 0.00 0.00 41 1011.5
20260503230036 56 168 5.2 10.4 0.00 0.00 0.00 40 1011.7
20260503230008 56 167 4.3 9.6 0.00 0.00 0.00 40 1011.6
20260503224558 56 316 0.0 8.7 0.00 0.00 0.00 41 1011.5
20260503224528 56 243 4.3 13.9 0.00 0.00 0.00 40 1011.8
20260503224509 56 273 4.3 13.0 0.00 0.00 0.00 40 1011.7
20260503223045 56 295 5.2 11.3 0.00 0.00 0.00 40 1011.6
20260503223012 56 263 6.1 13.9 0.00 0.00 0.00 39 1011.9
20260503223009 56 266 6.1 13.0 0.00 0.00 0.00 39 1011.8
20260503221559 56 269 5.2 10.4 0.00 0.00 0.00 40 1011.7
20260503221518 57 248 6.1 11.3 0.00 0.00 0.00 39 1012.0
20260503221508 57 250 6.1 11.3 0.00 0.00 0.00 39 1011.9
20260503220051 57 249 4.3 11.3 0.00 0.00 0.00 40 1011.6
20260503220022 57 229 4.3 15.6 0.00 0.00 0.00 39 1011.9
20260503220010 57 231 4.3 14.8 0.00 0.00 0.00 39 1011.8
20260503214547 57 302 2.6 10.4 0.00 0.00 0.00 41 1011.5
20260503214508 57 268 3.5 14.8 0.00 0.00 0.00 39 1011.9
20260503214506 57 271 2.6 13.9 0.00 0.00 0.00 39 1011.8
20260503213046 57 293 4.3 12.2 0.00 0.00 0.00 40 1011.5
20260503213009 57 266 4.3 13.9 0.00 0.00 0.00 38 1011.8
20260503211552 58 272 3.5 11.3 0.00 0.00 0.00 39 1011.4
20260503211516 58 268 3.5 11.3 0.00 0.00 0.00 39 1011.7
20260503211507 58 271 3.5 12.2 0.00 0.00 0.00 39 1011.8
20260503210042 59 238 7.0 10.4 0.00 0.00 0.00 37 1011.4
20260503210022 59 295 7.8 13.9 0.00 0.00 0.00 35 1011.7
20260503210010 59 300 7.8 13.9 0.00 0.00 0.00 35 1011.7
20260503204606 58 343 4.3 9.6 0.00 0.00 0.00 39 1011.4
20260503204524 58 250 5.2 13.0 0.00 0.00 0.00 38 1011.8
20260503204517 58 253 4.3 12.2 0.00 0.00 0.00 38 1011.8
20260503203049 57 266 3.5 9.6 0.00 0.00 0.00 40 1011.7
20260503203011 57 208 5.2 10.4 0.00 0.00 0.00 39 1012.0
20260503203006 57 209 4.3 9.6 0.00 0.00 0.00 39 1012.0
20260503201548 57 277 4.3 11.3 0.00 0.00 0.00 41 1011.8
20260503201515 57 256 5.2 16.5 0.00 0.00 0.00 39 1012.1
20260503201511 57 259 5.2 13.9 0.00 0.00 0.00 39 1012.0
20260503200051 57 269 3.5 10.4 0.00 0.00 0.00 41 1011.9
20260503200018 57 240 3.5 14.8 0.00 0.00 0.00 36 1012.3
20260503200012 57 242 3.5 13.9 0.00 0.00 0.00 36 1012.2
20260503194548 57 321 7.8 12.2 0.00 0.00 0.00 38 1012.1
20260503194525 58 263 8.7 14.8 0.00 0.00 0.00 37 1012.5
20260503194510 58 266 8.7 13.9 0.00 0.00 0.00 37 1012.4
20260503193048 58 274 7.8 11.3 0.00 0.00 0.00 36 1012.4
20260503193040 58 267 11.3 16.5 0.00 0.00 0.00 37 1012.9
20260503193013 58 270 10.4 15.6 0.00 0.00 0.00 37 1012.6
20260503191605 59 268 5.2 11.3 0.00 0.00 0.00 36 1012.5
20260503191525 59 227 7.0 16.5 0.00 0.00 0.00 35 1012.8
20260503191522 59 225 7.8 16.5 0.00 0.00 0.00 35 1013.1
20260503190048 58 291 7.0 11.3 0.00 0.00 0.00 40 1012.7
20260503190025 58 217 7.8 14.8 0.00 0.00 0.00 39 1013.2
20260503190012 58 218 7.8 13.9 0.00 0.00 0.00 39 1012.9
20260503184556 57 324 1.7 11.3 0.00 0.00 0.00 43 1012.8
20260503184520 57 202 6.1 14.8 0.00 0.00 0.00 37 1013.3
20260503184516 57 203 5.2 12.2 0.00 0.00 0.00 37 1013.1
20260503183057 57 333 4.3 11.3 0.00 0.00 0.00 41 1013.0
20260503183025 57 286 5.2 14.8 0.00 0.00 0.00 39 1013.4
20260503183014 57 290 5.2 13.9 0.00 0.00 0.00 39 1013.2
20260503181549 57 305 5.2 11.3 0.00 0.00 0.00 42 1013.1
20260503181514 57 267 6.1 16.5 0.00 0.00 0.00 41 1013.4
20260503181508 57 267 6.1 17.4 0.00 0.00 0.00 41 1013.5
20260503180058 57 293 5.2 11.3 0.00 0.00 0.00 41 1013.4
20260503180011 58 280 6.1 16.5 0.00 0.00 0.00 40 1013.6
20260503174554 57 346 3.5 11.3 0.00 0.00 0.00 42 1013.6
20260503174518 57 168 5.2 14.8 0.00 0.00 0.00 42 1013.7
20260503174515 57 167 4.3 13.0 0.00 0.00 0.00 42 1013.7
20260503173048 56 0 5.2 10.4 0.00 0.00 0.00 40 1013.7
20260503173024 56 260 5.2 13.0 0.00 0.00 0.00 38 1013.9
20260503173013 56 263 5.2 12.2 0.00 0.00 0.00 38 1013.8
20260503171549 56 293 4.3 11.3 0.00 0.00 0.00 41 1013.7
20260503171526 56 329 5.2 15.6 0.00 0.00 0.00 41 1014.0
20260503171515 56 335 5.2 14.8 0.00 0.00 0.00 41 1013.9
20260503081551 33 0 0.0 1.7 0.00 6.43 0.00 83 1014.9
20260503081524 33 216 0.0 2.6 0.00 0.03 0.00 84 1015.1
20260503081520 33 215 0.0 2.6 0.00 0.03 0.00 84 1015.1
20260503071610 34 0 0.0 0.9 0.00 8.99 0.00 82 1014.9
20260503071516 33 224 0.0 0.9 0.00 0.03 0.00 84 1014.9
20260503054605 35 0 0.0 0.9 0.00 1.41 0.00 77 1015.2
20260503054519 34 226 0.0 0.9 0.00 0.05 0.00 78 1015.5
20260503054504 34 228 0.0 0.9 0.00 0.05 0.00 78 1015.3
20260503053045 35 0 0.0 0.9 0.00 1.41 0.00 77 1015.2
20260503053004 35 203 0.0 1.7 0.00 0.06 0.00 78 1015.4
20260503051550 35 0 0.0 0.9 0.00 1.41 0.00 77 1015.3
20260503051511 34 203 0.0 1.7 0.00 0.07 0.00 78 1015.4
20260503051509 34 202 0.0 1.7 0.00 0.07 0.00 78 1015.5
20260503050051 35 0 0.0 0.0 0.00 1.41 0.00 76 1015.3
20260503050013 35 222 0.0 1.7 0.00 0.07 0.00 77 1015.5
20260503050010 35 221 0.0 1.7 0.00 0.07 0.00 77 1015.6
20260503044547 36 0 0.0 0.0 0.00 1.41 0.00 74 1015.4
20260503044517 35 240 0.0 0.0 0.00 0.07 0.00 75 1015.6
20260503044514 35 238 0.0 0.0 0.00 0.07 0.00 75 1015.7
20260503043053 37 0 0.0 0.0 0.00 1.41 0.00 72 1015.4
20260503043036 36 205 0.0 0.9 0.00 0.07 0.00 73 1015.5
20260503043021 36 204 0.0 0.9 0.00 0.07 0.00 73 1015.6
20260503041546 37 0 0.0 0.0 0.00 1.41 0.00 73 1015.4
20260503041526 37 230 0.0 1.7 0.00 0.07 0.00 73 1015.7
20260503041505 37 232 0.0 1.7 0.00 0.07 0.00 73 1015.5
20260503040046 38 0 0.0 0.0 0.00 1.41 0.00 74 1015.5
20260503040009 37 202 0.0 0.9 0.00 0.07 0.00 74 1015.8
20260503034549 38 0 0.0 0.9 0.00 1.41 1.41 73 1015.5
20260503034513 38 240 0.0 1.7 0.00 0.07 0.07 73 1015.7
20260503033048 38 0 0.0 0.0 0.00 1.41 1.41 73 1015.5
20260503033025 38 229 0.0 0.9 0.00 0.07 0.07 72 1015.7
20260503033018 38 227 0.0 0.9 0.00 0.07 0.07 72 1015.8
20260503031547 37 0 0.0 0.0 0.00 1.41 1.41 74 1015.6
20260503031523 37 217 0.0 0.9 0.00 0.07 0.07 74 1015.7
20260503030047 37 0 0.0 0.0 0.00 1.41 1.41 77 1015.7
20260503030029 37 265 0.0 0.9 0.00 0.07 0.07 76 1016.0
20260503030006 37 269 0.0 0.9 0.00 0.07 0.07 76 1015.8
20260503024546 37 0 0.0 0.0 0.00 1.41 1.41 79 1015.8
20260503024521 37 269 0.0 0.9 0.00 0.07 0.07 78 1016.0
20260503024508 37 265 0.0 0.9 0.00 0.07 0.07 78 1016.1
20260503023047 38 0 0.0 0.0 0.00 1.41 1.41 72 1016.0
20260503023013 38 269 0.0 0.9 0.00 0.07 0.07 72 1016.2
20260503021547 38 0 0.0 0.0 0.00 1.41 1.41 68 1016.0
20260503021537 38 269 0.0 0.9 0.00 0.07 0.07 69 1016.2
20260503021522 38 265 0.0 0.9 0.00 0.07 0.07 69 1016.3
20260503020047 38 0 0.0 0.0 0.00 1.41 1.41 69 1016.0
20260503020024 38 269 0.0 0.9 0.00 0.07 0.07 69 1016.2
20260503014558 38 0 0.0 0.0 0.00 1.41 1.41 69 1016.0
20260503014506 38 252 0.0 0.9 0.00 0.07 0.07 68 1016.1
20260503013049 38 0 0.0 0.9 0.00 1.41 1.41 70 1016.0
20260503013024 38 232 0.0 1.7 0.00 0.07 0.07 69 1016.3
20260503013012 38 234 0.0 1.7 0.00 0.07 0.07 69 1016.1
20260503011545 38 0 0.0 0.0 0.00 1.41 1.41 70 1016.0
20260503011520 38 249 0.0 0.0 0.00 0.07 0.07 69 1016.2